Gold Coast Seaway Observation History
Time Wind Speed Temp Pressure Rel. Hum Rain
22/12:00pm S 31-42 kts 27.1°c 1008.9 hPa 69% 0.0mm
22/11:30am SSE 31-41 kts 28.1°c 1008.8 hPa 70% 0.0mm
22/11:02am SSE 29-42 kts 28.1°c 1009.0 hPa 68% 0.0mm
22/11:00am SSE 28-37 kts 28.2°c 1009.1 hPa 70% 0.0mm
22/10:36am S 25-37 kts 25.7°c 1009.2 hPa 75% 0.0mm
22/10:30am S 24-32 kts 25.4°c 1009.4 hPa 78% 0.0mm
22/10:14am S 27-37 kts 25.7°c 1009.5 hPa 79% 0.0mm
22/10:00am S 26-34 kts 24.4°c 1009.6 hPa 79% 0.0mm
22/09:39am S 29-44 kts 26.2°c 1009.2 hPa 72% 0.0mm
22/09:38am S 30-44 kts 26.4°c 1009.2 hPa 71% 0.0mm
22/09:30am S 34-44 kts 26.4°c 1009.1 hPa 74% 0.0mm
22/09:00am S 32-45 kts 25.9°c 1009.3 hPa 75% 11.6mm
22/08:30am S 27-38 kts 26.2°c 1009.0 hPa 73% 11.6mm
22/08:07am S 27-37 kts 25.3°c 1008.8 hPa 78% 11.6mm
22/08:00am S 27-36 kts 24.8°c 1008.8 hPa 82% 11.6mm
22/07:30am SSE 31-41 kts 24.8°c 1008.4 hPa 84% 11.6mm
22/07:09am SSE 25-37 kts 24.8°c 1008.3 hPa 85% 11.6mm
22/07:00am SSE 24-31 kts 24.4°c 1008.2 hPa 85% 11.6mm
22/06:30am S 21-32 kts 23.4°c 1008.3 hPa 85% 11.6mm
22/06:04am S 19-29 kts 22.9°c 1008.3 hPa 91% 11.6mm
22/06:00am S 21-29 kts 22.8°c 1008.3 hPa 92% 11.6mm
22/05:36am S 23-33 kts 23.1°c 1008.0 hPa 90% 11.6mm
22/05:30am S 26-34 kts 23.2°c 1008.0 hPa 92% 11.6mm
22/05:00am S 21-32 kts 23.1°c 1007.7 hPa 94% 11.6mm
22/04:49am S 20-30 kts 23.1°c 1007.5 hPa 91% 11.6mm
22/04:30am S 24-33 kts 23.3°c 1007.3 hPa 95% 11.6mm
22/04:27am S 23-33 kts 23.2°c 1007.3 hPa 95% 11.6mm
22/04:00am S 23-31 kts 22.6°c 1007.4 hPa 96% 11.6mm
22/03:32am S 21-32 kts 22.6°c 1007.4 hPa 99% 11.4mm
22/03:30am S 21-28 kts 22.3°c 1007.4 hPa 99% 11.4mm
22/03:03am S 19-29 kts 22.3°c 1007.3 hPa 100% 11.2mm
22/03:00am S 20-29 kts 22.4°c 1007.5 hPa 100% 11.2mm
22/02:30am S 21-29 kts 22.7°c 1007.6 hPa 99% 8.0mm
22/02:00am S 25-33 kts 23.4°c 1007.8 hPa 100% 7.2mm
22/01:30am S 25-34 kts 23.2°c 1008.0 hPa 99% 2.4mm
22/01:00am S 27-35 kts 23.4°c 1008.2 hPa 99% 1.6mm
22/12:30am S 22-32 kts 24.0°c 1008.6 hPa 98% 0.4mm
22/12:04am S 20-31 kts 24.8°c 1008.8 hPa 90% 0.0mm
22/12:00am S 21-28 kts 25.1°c 1008.6 hPa 92% 0.0mm
Time Wind Speed Temp Pressure Rel. Hum Rain
21/11:30pm S 20-27 kts 24.9°c 1008.8 hPa 91% 0.0mm
21/11:00pm S 19-24 kts 24.8°c 1008.8 hPa 90% 0.0mm
21/10:30pm SSE 24-29 kts 25.2°c 1009.0 hPa 91% 0.0mm
21/10:00pm SSE 22-30 kts 25.6°c 1009.2 hPa 90% 0.0mm
21/09:30pm SSE 21-27 kts 25.7°c 1009.2 hPa 87% 0.0mm
21/09:00pm SSE 25-32 kts 25.9°c 1009.2 hPa 89% 0.0mm
21/08:30pm SSE 24-30 kts 25.9°c 1009.1 hPa 90% 0.0mm
21/08:00pm SSE 23-30 kts 26.0°c 1008.8 hPa 86% 0.0mm
21/07:30pm SSE 26-32 kts 26.1°c 1008.5 hPa 86% 0.0mm
21/07:00pm SSE 26-32 kts 26.4°c 1008.3 hPa 86% 0.0mm
21/06:37pm SSE 27-37 kts 26.2°c 1008.0 hPa 84% 0.0mm
21/06:30pm SSE 29-36 kts 26.4°c 1008.0 hPa 86% 0.0mm
21/06:00pm SSE 27-33 kts 26.8°c 1007.7 hPa 85% 0.0mm
21/05:30pm SSE 27-35 kts 27.1°c 1007.3 hPa 83% 0.0mm
21/05:00pm SSE 27-34 kts 27.5°c 1006.9 hPa 83% 0.0mm
21/04:30pm SSE 27-35 kts 27.8°c 1006.7 hPa 83% 0.0mm
21/04:00pm SSE 27-33 kts 28.1°c 1006.6 hPa 82% 0.0mm
21/03:30pm SE 25-31 kts 28.8°c 1006.6 hPa 81% 0.0mm
21/03:00pm SE 26-31 kts 29.0°c 1006.6 hPa 78% 0.0mm
21/02:30pm SE 26-33 kts 29.1°c 1006.9 hPa 76% 0.0mm
21/02:00pm SE 26-32 kts 29.5°c 1007.4 hPa 77% 0.0mm
21/01:30pm SSE 25-31 kts 29.7°c 1007.8 hPa 75% 0.0mm
21/01:00pm SSE 23-29 kts 29.9°c 1008.2 hPa 74% 0.0mm
21/12:30pm SSE 23-31 kts 30.2°c 1008.3 hPa 73% 0.0mm
21/12:00pm SSE 22-28 kts 30.1°c 1008.5 hPa 73% 0.0mm
21/11:30am SSE 20-26 kts 30.3°c 1008.6 hPa 75% 0.0mm
21/11:00am SSE 20-27 kts 29.6°c 1009.0 hPa 77% 0.0mm
21/10:30am SSE 19-24 kts 27.4°c 1009.2 hPa 86% 0.0mm
21/10:00am SSE 23-29 kts 26.5°c 1009.2 hPa 89% 0.0mm
21/09:30am SSE 24-29 kts 27.1°c 1008.8 hPa 87% 0.0mm
21/09:15am SSE 18-29 kts 27.5°c 1008.7 hPa 84% 0.0mm
21/09:00am SSE 17-21 kts 27.6°c 1008.5 hPa 85% 0.0mm
21/08:30am SSE 18-21 kts 28.4°c 1008.4 hPa 81% 0.0mm
21/08:00am SSE 19-23 kts 27.6°c 1008.2 hPa 83% 0.0mm
21/07:30am SSE 18-22 kts 26.6°c 1008.0 hPa 87% 0.0mm
21/07:00am SSE 17-20 kts 26.3°c 1007.7 hPa 89% 0.0mm
21/06:30am S 15-19 kts 25.0°c 1007.4 hPa 94% 0.0mm
21/06:00am SSE 17-20 kts 24.8°c 1007.2 hPa 95% 0.0mm
21/05:30am SSE 16-19 kts 25.0°c 1006.8 hPa 95% 0.0mm
21/05:00am SSE 17-20 kts 25.0°c 1006.5 hPa 94% 0.0mm
21/04:30am SSE 16-19 kts 25.1°c 1006.3 hPa 94% 0.0mm
21/04:00am SSE 15-17 kts 25.3°c 1006.1 hPa 93% 0.0mm
21/03:30am SSE 15-17 kts 25.5°c 1006.1 hPa 92% 0.0mm
21/03:00am SSE 14-17 kts 25.3°c 1006.1 hPa 90% 0.0mm
21/02:30am SSE 13-17 kts 25.7°c 1006.2 hPa 91% 0.0mm
21/02:00am SE 13-16 kts 25.7°c 1006.7 hPa 89% 0.0mm
21/01:30am SSE 13-16 kts 25.5°c 1007.0 hPa 87% 0.0mm
21/01:00am SSE 17-20 kts 25.7°c 1007.8 hPa 88% 0.0mm
21/12:30am SSE 17-20 kts 25.8°c 1008.1 hPa 88% 0.0mm
21/12:00am S 12-17 kts 25.7°c 1008.4 hPa 88% 0.0mm
Time Wind Speed Temp Pressure Rel. Hum Rain
20/11:30pm S 13-20 kts 25.5°c 1008.9 hPa 90% 0.0mm
20/11:00pm S 13-19 kts 25.8°c 1009.1 hPa 91% 0.0mm
20/10:30pm SSE 16-19 kts 25.8°c 1008.6 hPa 93% 0.0mm
20/10:00pm SSE 16-19 kts 26.0°c 1008.4 hPa 93% 0.0mm
20/09:30pm SE 13-16 kts 26.1°c 1008.3 hPa 93% 0.0mm
20/09:00pm SE 13-16 kts 26.3°c 1008.1 hPa 91% 0.0mm
20/08:30pm SE 12-15 kts 26.3°c 1007.8 hPa 92% 0.0mm
20/08:00pm SE 12-14 kts 26.2°c 1007.2 hPa 93% 0.0mm
20/07:30pm SE 12-14 kts 26.1°c 1006.9 hPa 90% 0.0mm
20/07:00pm SE 12-15 kts 26.0°c 1006.6 hPa 90% 0.0mm
20/06:30pm SE 12-14 kts 26.3°c 1006.3 hPa 89% 0.0mm
20/06:00pm SE 12-16 kts 26.7°c 1006.2 hPa 85% 0.0mm
20/05:30pm SE 14-17 kts 27.4°c 1006.0 hPa 83% 0.0mm
20/05:00pm SE 15-17 kts 27.7°c 1005.8 hPa 79% 0.0mm
20/04:30pm SE 16-19 kts 28.2°c 1005.8 hPa 81% 0.0mm
20/04:00pm SE 17-19 kts 28.5°c 1005.7 hPa 78% 0.0mm
20/03:30pm SE 17-19 kts 29.4°c 1005.9 hPa 75% 0.0mm
20/03:00pm SE 17-19 kts 29.3°c 1006.0 hPa 76% 0.0mm
20/02:30pm SE 16-18 kts 29.6°c 1006.2 hPa 75% 0.0mm
20/02:00pm SE 16-18 kts 29.4°c 1006.6 hPa 72% 0.0mm
20/01:30pm SE 16-18 kts 29.7°c 1007.0 hPa 73% 0.0mm
20/01:00pm ESE 17-20 kts 29.7°c 1007.4 hPa 75% 0.0mm
20/12:30pm ESE 18-20 kts 29.1°c 1007.7 hPa 74% 0.0mm
20/12:00pm SE 17-20 kts 29.5°c 1007.9 hPa 74% 0.0mm
20/11:30am SE 17-19 kts 29.4°c 1008.3 hPa 72% 0.0mm
20/11:00am SE 16-18 kts 29.9°c 1008.8 hPa 72% 0.0mm
20/10:30am SE 15-17 kts 29.3°c 1009.2 hPa 73% 0.0mm
20/10:00am SE 14-16 kts 30.0°c 1009.4 hPa 72% 0.0mm
20/09:30am SE 13-15 kts 29.8°c 1009.3 hPa 75% 0.0mm
20/09:00am SSE 12-15 kts 29.8°c 1009.3 hPa 75% 0.0mm
20/08:30am SSE 11-14 kts 28.3°c 1009.2 hPa 76% 0.0mm
20/08:00am SSE 13-15 kts 28.2°c 1009.1 hPa 79% 0.0mm
20/07:30am S 11-14 kts 26.8°c 1008.7 hPa 82% 0.0mm
20/07:00am S 12-15 kts 25.9°c 1008.5 hPa 85% 0.0mm
20/06:30am S 11-14 kts 24.9°c 1008.3 hPa 91% 0.0mm
20/06:00am S 11-14 kts 24.2°c 1008.2 hPa 94% 0.0mm
20/05:30am S 9-13 kts 23.8°c 1007.9 hPa 93% 0.0mm
20/05:00am S 8-13 kts 23.8°c 1007.7 hPa 93% 0.0mm
20/04:30am S 9-12 kts 24.4°c 1007.5 hPa 92% 0.0mm
20/04:00am SSE 9-13 kts 24.8°c 1007.3 hPa 93% 0.0mm
20/03:30am SSE 10-12 kts 24.7°c 1007.0 hPa 94% 0.0mm
20/03:00am SSE 8-12 kts 24.5°c 1007.1 hPa 93% 0.0mm
20/02:30am S 7-8 kts 24.1°c 1007.0 hPa 91% 0.0mm
20/02:00am SSW 5-6 kts 24.1°c 1006.7 hPa 91% 0.0mm
20/01:30am SW 5-7 kts 24.1°c 1006.8 hPa 91% 0.0mm
20/01:00am W 4-5 kts 24.3°c 1007.1 hPa 90% 0.0mm
20/12:30am W 4-5 kts 24.0°c 1007.4 hPa 90% 0.0mm
20/12:00am WNW 5-6 kts 24.3°c 1007.6 hPa 90% 0.0mm